This is the latest recevied weather packets stored in our database for station/object KC5DAQ-28. If no packets are shown the sender has not sent any weather packets the latest 10 day(s).
| Time | Temp. | Humidity | Pressure | Rain* | Wind** | Luminosity | Snow |
|---|---|---|---|---|---|---|---|
| 1778350503 | 29.44° C | 73% | 1003.9 hPa | 0 mm | - | 670 W/m² | - |
| 1778350444 | 29.44° C | 72% | 1003.8 hPa | 0 mm | - | 1027 W/m² | - |
| 1778350382 | 29.44° C | 72% | 1003.9 hPa | 0 mm | - | 1027 W/m² | - |
| 1778350324 | 29.44° C | 72% | 1003.9 hPa | 0 mm | - | 1027 W/m² | - |
| 1778350262 | 29.44° C | 74% | 1003.9 hPa | 0 mm | - | 1027 W/m² | - |
| 1778350203 | 29.44° C | 74% | 1003.9 hPa | 0 mm | - | 740 W/m² | - |
| 1778350144 | 29.44° C | 74% | 1004 hPa | 0 mm | - | 740 W/m² | - |
| 1778350082 | 29.44° C | 74% | 1004 hPa | 0 mm | - | 723 W/m² | - |
| 1778350023 | 29.44° C | 73% | 1004.1 hPa | 0 mm | - | 783 W/m² | - |
| 1778349964 | 29.44° C | 73% | 1004.1 hPa | 0 mm | - | 783 W/m² | - |
| 1778349902 | 29.44° C | 72% | 1004.1 hPa | 0 mm | - | 783 W/m² | - |
| 1778349843 | 29.44° C | 72% | 1004.1 hPa | 0 mm | - | 879 W/m² | - |
| 1778349782 | 29.44° C | 72% | 1004.2 hPa | 0 mm | - | 900 W/m² | - |
| 1778349723 | 29.44° C | 73% | 1004.1 hPa | 0 mm | - | 900 W/m² | - |
| 1778349664 | 29.44° C | 74% | 1004.3 hPa | 0 mm | - | 712 W/m² | - |
| 1778349604 | 29.44° C | 74% | 1004.3 hPa | 0 mm | - | 1016 W/m² | - |
| 1778349542 | 29.44° C | 74% | 1004.3 hPa | 0 mm | - | 1016 W/m² | - |
| 1778349482 | 29.44° C | 74% | 1004.3 hPa | 0 mm | - | 791 W/m² | - |
| 1778349423 | 29.44° C | 74% | 1004.2 hPa | 0 mm | - | 791 W/m² | - |
| 1778349363 | 29.44° C | 74% | 1004.3 hPa | 0 mm | - | 791 W/m² | - |
| 1778349304 | 29.44° C | 74% | 1004.3 hPa | 0 mm | - | 965 W/m² | - |
| 1778349243 | 28.89° C | 74% | 1004.2 hPa | 0 mm | - | 942 W/m² | - |
| 1778349182 | 28.89° C | 74% | 1004.3 hPa | 0 mm | - | 705 W/m² | - |
| 1778349122 | 28.89° C | 73% | 1004.3 hPa | 0 mm | - | 714 W/m² | - |
| 1778349064 | 28.89° C | 73% | 1004.3 hPa | 0 mm | - | 673 W/m² | - |
* Rain latest hour (hover to see other rain measurements)
** Current wind speed in m/s (hover to see current wind gust speed)